Simultaneous Nadir Overpasses (SNOs) Predictions

Prediction of SNOs between AQUA and METOP-A Satellite Orbit:

Table of predicted SNOs for the next 14.0 days since TLE Epoch: 7/5/2012
Index Date (AQUA) Time (AQUA) AQUA Lat,Lon Date (METOP-A) Time (METOP-A) METOP-A Lat,Lon Distance(km) Time Diff (sec)
1 07/08/2012 02:07:35 -73.74, -37.44 07/08/2012 02:06:22 -73.69, -37.66 8.80 73
2 07/08/2012 02:57:04 73.82, 130.03 07/08/2012 02:56:59 73.80, 129.95 3.08 5
3 07/08/2012 03:46:31 -73.89, -62.49 07/08/2012 03:47:39 -73.92, -62.46 2.82 68
4 07/10/2012 21:41:51 -73.76, 28.96 07/10/2012 21:40:41 -73.78, 28.96 2.31 70
5 07/10/2012 22:31:20 73.83,-163.58 07/10/2012 22:31:19 73.84,-163.56 0.71 1
6 07/10/2012 23:20:47 -73.91, 3.91 07/10/2012 23:22:00 -73.90, 3.92 0.70 73
7 07/13/2012 17:16:06 -73.74, 95.42 07/13/2012 17:15:02 -73.76, 95.33 3.46 64
8 07/13/2012 18:05:34 73.82, -97.12 07/13/2012 18:05:39 73.82, -97.19 2.44 5
9 07/13/2012 18:55:05 -74.10, 69.90 07/13/2012 18:56:16 -74.08, 70.77 26.43 71
10 07/16/2012 12:50:20 -73.75, 161.84 07/16/2012 12:49:21 -73.78, 161.79 3.35 59
11 07/16/2012 13:39:49 73.84, -30.71 07/16/2012 13:39:59 73.84, -30.73 0.49 10
12 07/16/2012 14:29:23 -74.26, 135.96 07/16/2012 14:30:32 -74.29, 137.73 53.41 69
13 07/19/2012 08:24:35 -73.78,-131.79 07/19/2012 08:23:41 -73.79,-131.76 1.47 54
14 07/19/2012 09:14:04 73.87, 35.65 07/19/2012 09:14:19 73.85, 35.72 3.24 15




NCC Satellite Simultaneous Nadir Overpasses (SNOs) Prediction Service
